This is the latest recevied weather packets stored in our database for station/object W4NFM. If no packets are shown the sender has not sent any weather packets the latest 10 day(s).
| Time | Temp. | Humidity | Pressure | Rain* | Wind** | Luminosity | Snow |
|---|---|---|---|---|---|---|---|
| 1777358163 | 10.56° C | 80% | 1022.9 hPa | 0 mm | - | 0 W/m² | - |
| 1777352403 | 12.78° C | 68% | 1024.1 hPa | 0 mm | - | 0 W/m² | - |
| 1777341603 | 13.33° C | 64% | 1024 hPa | 0 mm | - | 0 W/m² | - |
| 1777341243 | 13.33° C | 69% | 1023.7 hPa | 0 mm | - | 0 W/m² | - |
| 1777334943 | 15° C | 63% | 1022.8 hPa | 0 mm | - | 0 W/m² | - |
| 1777334066 | 15.56° C | 60% | 1022.6 hPa | 0 mm | - | 0 W/m² | - |
| 1777332965 | 16.11° C | 60% | 1022.6 hPa | 0 mm | - | 7 W/m² | - |
| 1777331345 | 16.67° C | 59% | 1022.7 hPa | 0 mm | - | 12 W/m² | - |
| 1777327205 | 18.89° C | 46% | 1022.5 hPa | 0 mm | - | 45 W/m² | - |
| 1777326326 | 19.44° C | 45% | 1022.5 hPa | 0 mm | - | 51 W/m² | - |
| 1777324685 | 20° C | 44% | 1022.4 hPa | 0 mm | - | 148 W/m² | - |
| 1777323245 | 20.56° C | 43% | 1022.5 hPa | 0 mm | - | 451 W/m² | - |
| 1777319105 | 23.89° C | 43% | 1023.1 hPa | 0 mm | - | 594 W/m² | - |
| 1777318565 | 23.33° C | 45% | 1023 hPa | 0 mm | - | 659 W/m² | - |
| 1777317485 | 22.22° C | 43% | 1023 hPa | 0 mm | - | 712 W/m² | - |
| 1777316045 | 21.11° C | 45% | 1023.5 hPa | 0 mm | - | 688 W/m² | - |
| 1777312804 | 19.44° C | 46% | 1024 hPa | 0 mm | - | 78 W/m² | - |
| 1777311905 | 20° C | 56% | 1024.1 hPa | 0 mm | - | 45 W/m² | - |
| 1777306684 | 16.11° C | 55% | 1025 hPa | 0 mm | - | 25 W/m² | - |
| 1777305266 | 15° C | 55% | 1025 hPa | 0 mm | - | 21 W/m² | - |
| 1777304704 | 15.56° C | 62% | 1025.2 hPa | 0 mm | - | 21 W/m² | - |
| 1777300564 | 13.33° C | 59% | 1025.6 hPa | 0 mm | - | 16 W/m² | - |
| 1777299505 | 12.78° C | 71% | 1025.8 hPa | 0 mm | - | 19 W/m² | - |
| 1777298405 | 12.22° C | 66% | 1025.8 hPa | 0 mm | - | 17 W/m² | - |
| 1777291205 | 8.89° C | 91% | 1025.7 hPa | 0 mm | - | 9 W/m² | - |
* Rain latest hour (hover to see other rain measurements)
** Current wind speed in m/s (hover to see current wind gust speed)